Find Starlink 35450

NORAD ID: 65868 Int'l Des: 2025-223 Owner: SPXS Country: US Constellation: starlink operational
LEOCIRCULAR

現在のビュー

3D地球を読み込み中...

Starlink 35450について

説明を読み込み中...

次回通過

Passes for default location (London). Set your location on the main map for personalized predictions.

高度履歴

Loading altitude history...

軌道要素

1 65868U 25223Q 26146.57038437 .00022197 00000-0 66619-3 0 9995
2 65868 53.1578 292.1354 0001133 83.4550 276.6582 15.34397648 36132
Epoch: May 26, 2026 • Age: 7 hours

現在のステータス

高度 468.4 km
速度 7.64 km/s
衛星直下点 53.02°N, 160.64°W
打ち上げ日 Oct 3, 2025
運用期間 0.6 years
タイプ internet

技術仕様

分類 Payload
質量 575.00 kg
乾燥質量 530.00 kg
総質量 575.00 kg
長さ 0.30 m
直径 4.10 m
スパン 29.00 m
形状 Box + pan
製造者 SPXS
バスタイプ Starlink V2MO
フェーズステータス In Orbit
所有者/国 SPXS/US

Most Searched